This demonstration page uses our WeatherBlox Daily Observations layout. Learn more.

Left ArrowRight Arrow

Hourly Observations for November 28, 2022

Temp ( °F °C ) Dew Point ( °F °C ) Humidity (%) Winds ( mph kmh ) Pressure ( in mb ) Visibility ( mi km ) Precip ( " mm )
12:15 am 00:15 Cloudy with Mist and Fog 50 10 50 10 100 100 WSW 6 9 29.58 1002 4 6 0.00 0.00
12:35 am 00:35 Cloudy 50 10 50 10 100 100 WSW 6 9 29.58 1002 7 11 0.00 0.00
12:55 am 00:55 Cloudy with Mist and Fog 50 10 50 10 100 100 WSW 5 7 29.58 1002 5 8 0.00 0.00
1:15 am 01:15 Cloudy 50 10 50 10 100 100 W 5 7 29.59 1002 10 16 0.00 0.00
1:35 am 01:35 Cloudy 52 11 52 11 100 100 WSW 6 9 29.59 1002 10 16 0.00 0.00
1:55 am 01:55 Cloudy 54 12 52 11 94 94 W 6 9 29.59 1002 10 16 0.00 0.00
2:15 am 02:15 Cloudy 55 13 48 9 77 77 W 5 7 29.59 1002 10 16 0.00 0.00
2:35 am 02:35 Cloudy 55 13 46 8 72 72 WNW 12 19 29.60 1002 10 16 0.00 0.00
2:55 am 02:55 Cloudy 55 13 46 8 72 72 WNW 10 17 29.60 1002 10 16 0.00 0.00
3:15 am 03:15 Cloudy 57 14 46 8 67 67 WNW 10 17 29.61 1003 10 16 0.00 0.00
3:35 am 03:35 Cloudy 55 13 46 8 72 72 WNW 8 13 29.62 1003 10 16 0.00 0.00
3:55 am 03:55 Cloudy 55 13 46 8 72 72 WNW 6 9 29.62 1003 10 16 0.00 0.00
4:15 am 04:15 Cloudy 57 14 45 7 63 63 WNW 12 19 29.63 1003 10 16 0.00 0.00
4:35 am 04:35 Cloudy 57 14 45 7 63 63 NW 12 19 29.63 1003 10 16 0.00 0.00
4:55 am 04:55 Cloudy 55 13 45 7 67 67 WNW 7 11 29.64 1004 10 16 0.00 0.00
5:15 am 05:15 Cloudy 55 13 45 7 67 67 W 5 7 29.65 1004 10 16 0.00 0.00
5:35 am 05:35 Cloudy 55 13 45 7 67 67 NW 10 17 29.66 1004 10 16 0.00 0.00
5:55 am 05:55 Cloudy 55 13 45 7 67 67 WNW 10 17 29.67 1005 10 16 0.00 0.00
6:15 am 06:15 Cloudy 55 13 45 7 67 67 NW 10 17 29.69 1005 10 16 0.00 0.00
6:35 am 06:35 Cloudy 54 12 45 7 71 71 NW 17 28 29.70 1006 10 16 0.00 0.00
6:55 am 06:55 Mostly Cloudy 52 11 45 7 76 76 NW 16 26 29.72 1006 10 16 0.00 0.00
7:15 am 07:15 Mostly Cloudy 52 11 43 6 71 71 NW 14 22 29.74 1007 10 16 0.00 0.00
7:35 am 07:35 Mostly Cloudy 50 10 43 6 76 76 NW 12 19 29.76 1008 10 16 0.00 0.00
7:55 am 07:55 Mostly Cloudy 52 11 43 6 71 71 NNW 18 30 29.77 1008 10 16 0.00 0.00
8:15 am 08:15 Mostly Cloudy 50 10 41 5 71 71 NNW 21 33 29.80 1009 10 16 0.00 0.00
8:35 am 08:35 Partly Cloudy 50 10 39 4 66 66 NW 22 35 29.81 1009 10 16 0.00 0.00
8:55 am 08:55 Partly Cloudy 50 10 39 4 66 66 NNW 20 31 29.83 1010 10 16 0.00 0.00
9:15 am 09:15 Mostly Cloudy 50 10 39 4 66 66 NNW 16 26 29.86 1011 10 16 0.00 0.00
9:35 am 09:35 Cloudy 50 10 37 3 62 62 N 17 28 29.87 1011 10 16 0.00 0.00
9:55 am 09:55 Partly Cloudy 50 10 37 3 62 62 NNW 14 22 29.87 1011 10 16 0.00 0.00
10:15 am 10:15 Partly Cloudy 52 11 39 4 62 62 NNW 20 31 29.87 1012 10 16 0.00 0.00
10:35 am 10:35 Mostly Cloudy 52 11 37 3 58 58 NNW 16 26 29.88 1012 10 16 0.00 0.00
10:55 am 10:55 Mostly Cloudy 52 11 39 4 62 62 NNW 14 22 29.88 1012 10 16 0.00 0.00
11:15 am 11:15 Partly Cloudy 54 12 41 5 62 62 NW 17 28 29.88 1012 10 16 0.00 0.00
11:35 am 11:35 Mostly Cloudy 52 11 37 3 58 58 NNW 14 22 29.88 1012 10 16 0.00 0.00
11:55 am 11:55 Cloudy 52 11 37 3 58 58 NNW 9 15 29.88 1012 10 16 0.00 0.00
12:15 pm 12:15 Cloudy 52 11 39 4 62 62 NW 12 19 29.88 1012 10 16 0.00 0.00
12:35 pm 12:35 Cloudy 52 11 39 4 62 62 NW 16 26 29.88 1012 10 16 0.00 0.00
12:55 pm 12:55 Cloudy 52 11 37 3 58 58 NNW 10 17 29.88 1012 10 16 0.00 0.00
1:15 pm 13:15 Cloudy 50 10 37 3 62 62 NNW 12 19 29.89 1012 10 16 0.00 0.00
1:35 pm 13:35 Cloudy 52 11 39 4 62 62 NW 10 17 29.90 1012 10 16 0.00 0.00
1:55 pm 13:55 Cloudy 52 11 39 4 62 62 NNW 10 17 29.90 1013 10 16 0.00 0.00
2:15 pm 14:15 Cloudy 50 10 39 4 66 66 NW 15 24 29.91 1013 10 16 0.00 0.00
2:35 pm 14:35 Cloudy 50 10 39 4 66 66 NW 12 19 29.92 1013 10 16 0.00 0.00
2:55 pm 14:55 Cloudy 50 10 37 3 62 62 NNW 13 20 29.93 1013 10 16 0.00 0.00
3:15 pm 15:15 Cloudy 50 10 39 4 66 66 NW 10 17 29.94 1014 10 16 0.00 0.00
3:35 pm 15:35 Cloudy 50 10 39 4 66 66 NW 12 19 29.96 1014 10 16 0.00 0.00
3:55 pm 15:55 Cloudy 50 10 39 4 66 66 NW 10 17 29.96 1014 10 16 0.00 0.00
4:15 pm 16:15 Cloudy 50 10 39 4 66 66 WNW 8 13 29.96 1015 10 16 0.00 0.00
4:35 pm 16:35 Cloudy 50 10 39 4 66 66 WNW 8 13 29.99 1015 10 16 0.00 0.00
4:55 pm 16:55 Cloudy 50 10 37 3 62 62 WNW 6 9 30.00 1016 10 16 0.00 0.00
5:15 pm 17:15 Cloudy 48 9 37 3 66 66 NW 6 9 30.01 1016 10 16 0.00 0.00
5:35 pm 17:35 Cloudy 48 9 37 3 66 66 WNW 6 9 30.02 1016 10 16 0.00 0.00
5:55 pm 17:55 Cloudy 48 9 37 3 66 66 WNW 7 11 30.03 1017 10 16 0.00 0.00
6:15 pm 18:15 Cloudy 48 9 37 3 66 66 WNW 8 13 30.04 1017 10 16 0.00 0.00
6:35 pm 18:35 Cloudy 48 9 37 3 66 66 WNW 9 15 30.05 1018 10 16 0.00 0.00
6:55 pm 18:55 Cloudy 46 8 37 3 71 71 NW 9 15 30.05 1018 10 16 0.00 0.00
7:15 pm 19:15 Mostly Cloudy 46 8 37 3 71 71 NW 7 11 30.06 1018 10 16 0.00 0.00
7:35 pm 19:35 Cloudy 46 8 36 2 66 66 NW 8 13 30.07 1018 10 16 0.00 0.00
7:55 pm 19:55 Mostly Cloudy 46 8 36 2 66 66 NW 9 15 30.08 1019 10 16 0.00 0.00
8:15 pm 20:15 Partly Cloudy 45 7 36 2 70 70 NW 7 11 30.09 1019 10 16 0.00 0.00
8:35 pm 20:35 Clear 45 7 36 2 70 70 NW 6 9 30.10 1019 10 16 0.00 0.00
8:55 pm 20:55 Clear 43 6 36 2 75 75 NW 7 11 30.11 1020 10 16 0.00 0.00
9:15 pm 21:15 Clear 43 6 36 2 75 75 NNW 3 6 30.11 1020 10 16 0.00 0.00
9:35 pm 21:35 Partly Cloudy 41 5 34 1 75 75 NW 3 6 30.11 1020 10 16 0.00 0.00
9:55 pm 21:55 Partly Cloudy 43 6 34 1 70 70 NW 5 7 30.12 1020 10 16 0.00 0.00
10:15 pm 22:15 Clear 41 5 34 1 75 75 NW 7 11 30.14 1020 10 16 0.00 0.00
10:35 pm 22:35 Mostly Cloudy 41 5 34 1 75 75 NNW 6 9 30.14 1021 10 16 0.00 0.00
10:55 pm 22:55 Partly Cloudy 37 3 34 1 87 87 NNW 5 7 30.16 1021 10 16 0.00 0.00
11:15 pm 23:15 Partly Cloudy 41 5 34 1 75 75 NNE 3 6 30.14 1021 10 16 0.00 0.00
11:35 pm 23:35 Partly Cloudy 37 3 34 1 87 87 Calm 30.15 1021 10 16 0.00 0.00
11:55 pm 23:55 Partly Cloudy 36 2 34 1 93 93 Calm 30.15 1021 10 16 0.00 0.00

Powered by AerisWeather